Time,TemperatureF,DewpointF,PressureIn,WindDirection,WindDirectionDegrees,WindSpeedMPH,WindSpeedGustMPH,Humidity,HourlyPrecipIn,Conditions,Clouds,dailyrainin,SoftwareType,DateUTC
2013-05-31 00:00:00,73.0,66.1,30.09,SW,225,0.0,0.0,79,0.00,,CLR,0.00,VWS V14.00,2013-05-31 04:00:00,
2013-05-31 00:01:00,73.0,66.1,30.09,SW,225,0.0,0.0,79,0.00,,CLR,0.00,VWS V14.00,2013-05-31 04:01:00,
2013-05-31 00:02:00,73.0,66.1,30.09,SSW,211,0.0,0.0,79,0.00,,CLR,0.00,VWS V14.00,2013-05-31 04:02:00,
2013-05-31 00:03:00,73.0,66.1,30.09,SSW,211,0.0,0.0,79,0.00,,CLR,0.00,VWS V14.00,2013-05-31 04:03:00,
2013-05-31 00:08:00,73.0,66.1,30.09,SSW,211,0.0,0.0,79,0.00,,CLR,0.00,VWS V14.00,2013-05-31 04:08:00,
2013-05-31 00:13:00,72.8,65.9,30.09,SSW,211,0.0,0.0,79,0.00,,CLR,0.00,VWS V14.00,2013-05-31 04:13:00,
2013-05-31 00:18:00,72.5,66.0,30.09,SSW,211,0.0,0.0,80,0.00,,CLR,0.00,VWS V14.00,2013-05-31 04:18:00,
2013-05-31 00:23:00,72.3,65.8,30.09,SSW,211,0.0,0.0,80,0.00,,CLR,0.00,VWS V14.00,2013-05-31 04:23:00,
2013-05-31 00:28:00,72.1,65.9,30.09,SSW,211,0.0,0.0,81,0.00,,CLR,0.00,VWS V14.00,2013-05-31 04:28:00,
2013-05-31 00:30:00,72.0,65.9,30.09,SSW,211,0.0,0.0,81,0.00,,CLR,0.00,VWS V14.00,2013-05-31 04:30:00,
2013-05-31 00:33:00,71.9,65.8,30.09,SSW,211,0.0,0.0,81,0.00,,CLR,0.00,VWS V14.00,2013-05-31 04:33:00,
2013-05-31 00:38:00,71.6,65.8,30.09,SSW,211,0.0,0.0,82,0.00,,CLR,0.00,VWS V14.00,2013-05-31 04:38:00,
2013-05-31 00:43:00,71.3,65.9,30.09,SSW,211,0.0,0.0,83,0.00,,CLR,0.00,VWS V14.00,2013-05-31 04:43:00,
2013-05-31 00:48:00,71.1,65.7,30.09,SSW,211,0.0,0.0,83,0.00,,CLR,0.00,VWS V14.00,2013-05-31 04:48:00,
2013-05-31 00:53:00,71.1,65.7,30.10,SSW,211,0.0,0.0,83,0.00,,CLR,0.00,VWS V14.00,2013-05-31 04:53:00,
2013-05-31 00:58:00,71.0,65.6,30.10,SW,233,0.0,0.0,83,0.00,,CLR,0.00,VWS V14.00,2013-05-31 04:58:00,
2013-05-31 01:00:00,70.9,65.5,30.10,SW,233,0.0,0.0,83,0.00,,CLR,0.00,VWS V14.00,2013-05-31 05:00:00,
2013-05-31 01:03:00,70.6,65.5,30.09,SW,233,0.0,0.0,84,0.00,,CLR,0.00,VWS V14.00,2013-05-31 05:03:00,
2013-05-31 01:08:00,70.2,65.1,30.09,SW,233,0.0,0.0,84,0.00,,CLR,0.00,VWS V14.00,2013-05-31 05:08:00,
2013-05-31 01:13:00,69.7,65.0,30.09,SW,233,0.0,0.0,85,0.00,,CLR,0.00,VWS V14.00,2013-05-31 05:13:00,
2013-05-31 01:18:00,69.2,64.8,30.09,SW,233,0.0,0.0,86,0.00,,CLR,0.00,VWS V14.00,2013-05-31 05:18:00,
2013-05-31 01:23:00,69.0,65.0,30.09,SW,233,0.0,0.0,87,0.00,,CLR,0.00,VWS V14.00,2013-05-31 05:23:00,
2013-05-31 01:28:00,69.0,65.3,30.09,SW,233,0.0,0.0,88,0.00,,CLR,0.00,VWS V14.00,2013-05-31 05:28:00,
2013-05-31 01:30:00,69.0,65.3,30.09,SW,233,0.0,0.0,88,0.00,,CLR,0.00,VWS V14.00,2013-05-31 05:30:00,
2013-05-31 01:33:00,69.5,65.5,30.09,SW,233,0.0,0.0,87,0.00,,CLR,0.00,VWS V14.00,2013-05-31 05:33:00,
2013-05-31 01:38:00,69.6,65.2,30.09,SW,233,0.0,0.0,86,0.00,,CLR,0.00,VWS V14.00,2013-05-31 05:38:00,
2013-05-31 01:43:00,69.6,65.2,30.09,SW,233,0.0,0.0,86,0.00,,CLR,0.00,VWS V14.00,2013-05-31 05:43:00,
2013-05-31 01:48:00,69.3,64.9,30.09,SW,233,0.0,0.0,86,0.00,,CLR,0.00,VWS V14.00,2013-05-31 05:48:00,
2013-05-31 01:53:00,68.9,64.9,30.09,SW,233,0.0,0.0,87,0.00,,CLR,0.00,VWS V14.00,2013-05-31 05:53:00,
2013-05-31 01:58:00,68.7,65.0,30.09,SW,233,0.0,0.0,88,0.00,,CLR,0.00,VWS V14.00,2013-05-31 05:58:00,
2013-05-31 02:00:00,68.7,65.0,30.09,SW,233,0.0,0.0,88,0.00,,CLR,0.00,VWS V14.00,2013-05-31 06:00:00,
2013-05-31 02:04:00,68.6,64.9,30.09,SW,234,0.0,0.0,88,0.00,,CLR,0.00,VWS V14.00,2013-05-31 06:04:00,
2013-05-31 02:09:00,68.5,65.1,30.09,SW,233,0.0,0.0,89,0.00,,CLR,0.00,VWS V14.00,2013-05-31 06:09:00,
2013-05-31 02:14:00,68.4,65.0,30.09,SW,233,0.0,0.0,89,0.00,,CLR,0.00,VWS V14.00,2013-05-31 06:14:00,
2013-05-31 02:19:00,68.6,65.2,30.09,SW,233,0.0,0.0,89,0.00,,CLR,0.00,VWS V14.00,2013-05-31 06:19:00,
2013-05-31 02:24:00,68.6,64.9,30.09,SW,233,0.0,0.0,88,0.00,,CLR,0.00,VWS V14.00,2013-05-31 06:24:00,
2013-05-31 02:29:00,68.4,64.7,30.09,SW,233,0.0,0.0,88,0.00,,CLR,0.00,VWS V14.00,2013-05-31 06:29:00,
2013-05-31 02:30:00,68.4,64.7,30.09,SW,233,0.0,0.0,88,0.00,,CLR,0.00,VWS V14.00,2013-05-31 06:30:00,
2013-05-31 02:34:00,68.3,64.9,30.09,SW,233,0.0,0.0,89,0.00,,CLR,0.00,VWS V14.00,2013-05-31 06:34:00,
2013-05-31 02:39:00,68.1,64.7,30.09,SW,233,0.0,0.0,89,0.00,,CLR,0.00,VWS V14.00,2013-05-31 06:39:00,
2013-05-31 02:44:00,68.1,64.7,30.09,SW,233,0.0,0.0,89,0.00,,CLR,0.00,VWS V14.00,2013-05-31 06:44:00,
2013-05-31 02:49:00,68.0,64.6,30.09,SW,233,0.0,0.0,89,0.00,,CLR,0.00,VWS V14.00,2013-05-31 06:49:00,
2013-05-31 02:54:00,67.8,64.4,30.09,SW,233,0.0,0.0,89,0.00,,CLR,0.00,VWS V14.00,2013-05-31 06:54:00,
2013-05-31 02:59:00,67.9,64.9,30.09,SW,233,0.0,0.0,90,0.00,,CLR,0.00,VWS V14.00,2013-05-31 06:59:00,
2013-05-31 03:00:00,67.9,64.9,30.09,SW,233,0.0,0.0,90,0.00,,CLR,0.00,VWS V14.00,2013-05-31 07:00:00,
2013-05-31 03:04:00,67.9,64.9,30.08,SW,233,0.0,0.0,90,0.00,,CLR,0.00,VWS V14.00,2013-05-31 07:04:00,
2013-05-31 03:09:00,68.3,64.9,30.09,SW,233,0.0,0.0,89,0.00,,CLR,0.00,VWS V14.00,2013-05-31 07:09:00,
2013-05-31 03:14:00,68.6,64.9,30.09,SW,233,0.0,0.0,88,0.00,,CLR,0.00,VWS V14.00,2013-05-31 07:14:00,
2013-05-31 03:19:00,68.7,65.0,30.09,SW,233,0.0,0.0,88,0.00,,CLR,0.00,VWS V14.00,2013-05-31 07:19:00,
2013-05-31 03:24:00,69.0,65.0,30.09,SW,233,0.0,0.0,87,0.00,,CLR,0.00,VWS V14.00,2013-05-31 07:24:00,
2013-05-31 03:29:00,69.2,65.2,30.09,SW,233,0.0,0.0,87,0.00,,CLR,0.00,VWS V14.00,2013-05-31 07:29:00,
2013-05-31 03:30:00,69.2,65.2,30.09,SW,233,0.0,0.0,87,0.00,,CLR,0.00,VWS V14.00,2013-05-31 07:30:00,
2013-05-31 03:34:00,69.3,64.9,30.09,SW,233,0.0,0.0,86,0.00,,CLR,0.00,VWS V14.00,2013-05-31 07:34:00,
2013-05-31 03:39:00,69.3,64.9,30.09,SW,233,0.0,0.0,86,0.00,,CLR,0.00,VWS V14.00,2013-05-31 07:39:00,
2013-05-31 03:44:00,69.2,64.8,30.09,SW,233,0.0,0.0,86,0.00,,CLR,0.00,VWS V14.00,2013-05-31 07:44:00,
2013-05-31 03:49:00,68.9,64.9,30.09,SW,233,0.0,0.0,87,0.00,,CLR,0.00,VWS V14.00,2013-05-31 07:49:00,
2013-05-31 03:54:00,68.8,64.8,30.09,SW,233,0.0,0.0,87,0.00,,CLR,0.00,VWS V14.00,2013-05-31 07:54:00,
2013-05-31 03:59:00,68.8,64.8,30.09,SW,233,0.0,0.0,87,0.00,,CLR,0.00,VWS V14.00,2013-05-31 07:59:00,
2013-05-31 04:00:00,68.8,64.8,30.09,SW,233,0.0,0.0,87,0.00,,CLR,0.00,VWS V14.00,2013-05-31 08:00:00,
2013-05-31 04:04:00,68.9,65.2,30.08,SW,233,0.0,0.0,88,0.00,,CLR,0.00,VWS V14.00,2013-05-31 08:04:00,
2013-05-31 04:09:00,69.1,65.1,30.08,SW,233,0.0,0.0,87,0.00,,CLR,0.00,VWS V14.00,2013-05-31 08:09:00,
2013-05-31 04:15:00,68.8,64.8,30.08,SW,233,0.0,0.0,87,0.00,,CLR,0.00,VWS V14.00,2013-05-31 08:15:00,
2013-05-31 04:20:00,68.2,64.5,30.08,SW,233,0.0,0.0,88,0.00,,CLR,0.00,VWS V14.00,2013-05-31 08:20:00,
2013-05-31 04:25:00,67.9,64.5,30.08,SW,233,0.0,0.0,89,0.00,,CLR,0.00,VWS V14.00,2013-05-31 08:25:00,
2013-05-31 04:30:00,67.6,64.2,30.08,SW,233,0.0,0.0,89,0.00,,CLR,0.00,VWS V14.00,2013-05-31 08:30:00,
2013-05-31 04:35:00,67.5,64.5,30.08,SW,233,0.0,0.0,90,0.00,,CLR,0.00,VWS V14.00,2013-05-31 08:35:00,
2013-05-31 04:40:00,67.5,64.5,30.08,SW,233,0.0,0.0,90,0.00,,CLR,0.00,VWS V14.00,2013-05-31 08:40:00,
2013-05-31 04:45:00,67.5,64.5,30.08,SW,233,0.0,0.0,90,0.00,,CLR,0.00,VWS V14.00,2013-05-31 08:45:00,
2013-05-31 04:50:00,67.4,64.4,30.09,SW,233,0.0,0.0,90,0.00,,CLR,0.00,VWS V14.00,2013-05-31 08:50:00,
2013-05-31 04:55:00,67.4,64.4,30.08,SW,233,0.0,0.0,90,0.00,,CLR,0.00,VWS V14.00,2013-05-31 08:55:00,
2013-05-31 05:00:00,67.5,64.5,30.09,SW,233,0.0,0.0,90,0.00,,CLR,0.00,VWS V14.00,2013-05-31 09:00:00,
2013-05-31 05:05:00,67.5,64.5,30.09,SW,233,0.0,0.0,90,0.00,,CLR,0.00,VWS V14.00,2013-05-31 09:05:00,
2013-05-31 05:10:00,67.5,64.5,30.09,SW,233,0.0,0.0,90,0.00,,CLR,0.00,VWS V14.00,2013-05-31 09:10:00,
2013-05-31 05:15:00,67.4,64.1,30.09,SW,233,0.0,0.0,89,0.00,,CLR,0.00,VWS V14.00,2013-05-31 09:15:00,
2013-05-31 05:20:00,67.3,64.3,30.09,SW,233,0.0,0.0,90,0.00,,CLR,0.00,VWS V14.00,2013-05-31 09:20:00,
2013-05-31 05:25:00,67.2,64.2,30.09,SW,233,0.0,0.0,90,0.00,,CLR,0.00,VWS V14.00,2013-05-31 09:25:00,
2013-05-31 05:30:00,67.1,64.1,30.09,SW,233,0.0,0.0,90,0.00,,CLR,0.00,VWS V14.00,2013-05-31 09:30:00,
2013-05-31 05:35:00,67.2,64.5,30.10,SW,233,0.0,0.0,91,0.00,,CLR,0.00,VWS V14.00,2013-05-31 09:35:00,
2013-05-31 05:40:00,67.1,64.1,30.10,SW,233,0.0,0.0,90,0.00,,CLR,0.00,VWS V14.00,2013-05-31 09:40:00,
2013-05-31 05:45:00,67.1,64.1,30.10,SW,233,0.0,0.0,90,0.00,,CLR,0.00,VWS V14.00,2013-05-31 09:45:00,
2013-05-31 05:50:00,67.1,64.1,30.10,SW,233,0.0,0.0,90,0.00,,CLR,0.00,VWS V14.00,2013-05-31 09:50:00,
2013-05-31 05:55:00,67.0,64.0,30.10,SW,233,0.0,0.0,90,0.00,,CLR,0.00,VWS V14.00,2013-05-31 09:55:00,
2013-05-31 06:00:00,67.0,64.0,30.10,SW,233,0.0,0.0,90,0.00,,CLR,0.00,VWS V14.00,2013-05-31 10:00:00,
2013-05-31 06:05:00,66.8,63.8,30.11,SW,233,0.0,0.0,90,0.00,,CLR,0.00,VWS V14.00,2013-05-31 10:05:00,
2013-05-31 06:10:00,66.7,63.7,30.11,SW,233,0.0,0.0,90,0.00,,CLR,0.00,VWS V14.00,2013-05-31 10:10:00,
2013-05-31 06:15:00,66.7,64.0,30.11,SW,233,0.0,0.0,91,0.00,,CLR,0.00,VWS V14.00,2013-05-31 10:15:00,
2013-05-31 06:21:00,66.7,64.0,30.11,SW,233,0.0,0.0,91,0.00,,CLR,0.00,VWS V14.00,2013-05-31 10:21:00,
2013-05-31 06:26:00,66.8,64.1,30.11,SW,233,0.0,0.0,91,0.00,,CLR,0.00,VWS V14.00,2013-05-31 10:26:00,
2013-05-31 06:30:00,67.0,64.6,30.11,SW,233,0.0,0.0,92,0.00,,CLR,0.00,VWS V14.00,2013-05-31 10:30:00,
2013-05-31 06:31:00,67.1,64.7,30.11,SW,233,0.0,0.0,92,0.00,,CLR,0.00,VWS V14.00,2013-05-31 10:31:00,
2013-05-31 06:36:00,67.5,65.1,30.11,SW,233,0.0,0.0,92,0.00,,CLR,0.00,VWS V14.00,2013-05-31 10:36:00,
2013-05-31 06:41:00,68.2,65.5,30.11,SW,225,0.0,0.0,91,0.00,,CLR,0.00,VWS V14.00,2013-05-31 10:41:00,
2013-05-31 06:46:00,68.8,65.8,30.11,SW,236,0.0,0.0,90,0.00,,CLR,0.00,VWS V14.00,2013-05-31 10:46:00,
2013-05-31 06:51:00,69.7,66.3,30.11,SW,236,0.0,0.0,89,0.00,,CLR,0.00,VWS V14.00,2013-05-31 10:51:00,
2013-05-31 06:56:00,70.6,66.9,30.12,WSW,255,0.0,3.0,88,0.00,,CLR,0.00,VWS V14.00,2013-05-31 10:56:00,
2013-05-31 07:00:00,71.1,67.0,30.11,WSW,256,0.0,3.0,87,0.00,,CLR,0.00,VWS V14.00,2013-05-31 11:00:00,
2013-05-31 07:01:00,71.3,67.2,30.12,WSW,256,0.0,0.0,87,0.00,,,0.00,VWS V14.00,2013-05-31 11:01:00,
2013-05-31 07:06:00,72.3,67.5,30.11,SSE,150,0.0,3.0,85,0.00,,,0.00,VWS V14.00,2013-05-31 11:06:00,
2013-05-31 07:11:00,73.2,68.1,30.11,South,176,0.0,3.0,84,0.00,,,0.00,VWS V14.00,2013-05-31 11:11:00,
2013-05-31 07:16:00,73.7,67.9,30.11,SW,236,2.0,3.0,82,0.00,,,0.00,VWS V14.00,2013-05-31 11:16:00,
2013-05-31 07:21:00,74.1,67.9,30.12,ENE,69,2.0,3.0,81,0.00,,,0.00,VWS V14.00,2013-05-31 11:21:00,
2013-05-31 07:26:00,74.4,68.2,30.11,SW,235,3.0,5.0,81,0.00,,,0.00,VWS V14.00,2013-05-31 11:26:00,
2013-05-31 07:30:00,74.6,68.4,30.11,SSW,194,2.0,5.0,81,0.00,,CLR,0.00,VWS V14.00,2013-05-31 11:30:00,
2013-05-31 07:31:00,74.7,68.5,30.11,SSW,195,1.0,2.0,81,0.00,,,0.00,VWS V14.00,2013-05-31 11:31:00,
2013-05-31 07:36:00,75.0,68.8,30.11,SSW,194,1.0,2.0,81,0.00,,,0.00,VWS V14.00,2013-05-31 11:36:00,
2013-05-31 07:41:00,75.4,69.2,30.11,SSW,194,0.0,2.0,81,0.00,,,0.00,VWS V14.00,2013-05-31 11:41:00,
2013-05-31 07:46:00,75.8,68.8,30.11,West,266,3.0,3.0,79,0.00,,,0.00,VWS V14.00,2013-05-31 11:46:00,
2013-05-31 07:51:00,76.2,68.8,30.11,SSE,155,1.0,3.0,78,0.00,,,0.00,VWS V14.00,2013-05-31 11:51:00,
2013-05-31 07:56:00,76.6,68.9,30.11,WNW,302,1.0,4.0,77,0.00,,,0.00,VWS V14.00,2013-05-31 11:56:00,
2013-05-31 08:00:00,76.7,68.9,30.11,SE,136,1.0,4.0,77,0.00,,CLR,0.00,VWS V14.00,2013-05-31 12:00:00,
2013-05-31 08:01:00,76.8,69.1,30.11,ESE,120,0.0,2.0,77,0.00,,,0.00,VWS V14.00,2013-05-31 12:01:00,
2013-05-31 08:06:00,77.3,69.5,30.11,South,186,1.0,3.0,77,0.00,,,0.00,VWS V14.00,2013-05-31 12:06:00,
2013-05-31 08:11:00,77.5,69.7,30.11,WNW,288,0.0,3.0,77,0.00,,,0.00,VWS V14.00,2013-05-31 12:11:00,
2013-05-31 08:16:00,78.0,70.2,30.12,South,170,2.0,3.0,77,0.00,,,0.00,VWS V14.00,2013-05-31 12:16:00,
2013-05-31 08:21:00,78.7,70.5,30.12,South,174,1.0,3.0,76,0.00,,,0.00,VWS V14.00,2013-05-31 12:21:00,
2013-05-31 08:27:00,79.2,71.0,30.11,South,190,0.0,3.0,76,0.00,,,0.00,VWS V14.00,2013-05-31 12:27:00,
2013-05-31 08:30:00,79.5,71.3,30.11,SSW,204,1.0,3.0,76,0.00,,CLR,0.00,VWS V14.00,2013-05-31 12:30:00,
2013-05-31 08:32:00,79.6,71.0,30.11,SSW,197,1.0,2.0,75,0.00,,,0.00,VWS V14.00,2013-05-31 12:32:00,
2013-05-31 08:37:00,79.9,70.9,30.11,SE,131,1.0,3.0,74,0.00,,,0.00,VWS V14.00,2013-05-31 12:37:00,
2013-05-31 08:42:00,79.8,70.4,30.12,West,259,4.0,4.0,73,0.00,,,0.00,VWS V14.00,2013-05-31 12:42:00,
2013-05-31 08:47:00,79.9,70.5,30.12,WSW,241,2.0,4.0,73,0.00,,,0.00,VWS V14.00,2013-05-31 12:47:00,
2013-05-31 08:52:00,80.3,70.9,30.12,WSW,239,3.0,4.0,73,0.00,,,0.00,VWS V14.00,2013-05-31 12:52:00,
2013-05-31 08:57:00,80.5,71.1,30.11,SSW,208,2.0,4.0,73,0.00,,,0.00,VWS V14.00,2013-05-31 12:57:00,
2013-05-31 09:00:00,80.7,70.0,30.11,SSW,201,1.0,4.0,70,0.00,,CLR,0.00,VWS V14.00,2013-05-31 13:00:00,
2013-05-31 09:02:00,81.0,71.5,30.11,South,174,2.0,2.0,73,0.00,,CLR,0.00,VWS V14.00,2013-05-31 13:02:00,
2013-05-31 09:07:00,81.7,71.4,30.11,SE,129,2.0,5.0,71,0.00,,CLR,0.00,VWS V14.00,2013-05-31 13:07:00,
2013-05-31 09:12:00,82.4,72.5,30.11,SSW,194,2.0,5.0,72,0.00,,CLR,0.00,VWS V14.00,2013-05-31 13:12:00,
2013-05-31 09:17:00,82.9,71.7,30.11,South,181,2.0,5.0,69,0.00,,CLR,0.00,VWS V14.00,2013-05-31 13:17:00,
2013-05-31 09:22:00,82.9,70.8,30.10,SSE,155,1.0,6.0,67,0.00,,CLR,0.00,VWS V14.00,2013-05-31 13:22:00,
2013-05-31 09:27:00,82.9,70.8,30.10,SSE,166,2.0,6.0,67,0.00,,CLR,0.00,VWS V14.00,2013-05-31 13:27:00,
2013-05-31 09:30:00,82.9,71.3,30.11,SSE,148,0.0,6.0,68,0.00,,OVC009,0.00,VWS V14.00,2013-05-31 13:30:00,
2013-05-31 09:32:00,83.1,71.4,30.11,SSW,201,2.0,2.0,68,0.00,,CLR,0.00,VWS V14.00,2013-05-31 13:32:00,
2013-05-31 09:37:00,83.6,71.9,30.10,SSW,208,3.0,3.0,68,0.00,,CLR,0.00,VWS V14.00,2013-05-31 13:37:00,
2013-05-31 09:42:00,84.1,72.4,30.10,SE,145,1.0,4.0,68,0.00,,CLR,0.00,VWS V14.00,2013-05-31 13:42:00,
2013-05-31 09:47:00,84.2,71.6,30.10,South,176,2.0,4.0,66,0.00,,CLR,0.00,VWS V14.00,2013-05-31 13:47:00,
2013-05-31 09:52:00,84.7,73.0,30.10,SW,221,1.0,5.0,68,0.00,,CLR,0.00,VWS V14.00,2013-05-31 13:52:00,
2013-05-31 09:57:00,84.5,72.3,30.10,South,174,3.0,5.0,67,0.00,,CLR,0.00,VWS V14.00,2013-05-31 13:57:00,
2013-05-31 10:00:00,84.7,72.5,30.10,SE,142,2.0,5.0,67,0.00,,CLR,0.00,VWS V14.00,2013-05-31 14:00:00,
2013-05-31 10:02:00,85.0,73.3,30.10,South,174,2.0,3.0,68,0.00,,CLR,0.00,VWS V14.00,2013-05-31 14:02:00,
2013-05-31 10:07:00,85.4,73.6,30.10,SSW,212,2.0,4.0,68,0.00,,CLR,0.00,VWS V14.00,2013-05-31 14:07:00,
2013-05-31 10:12:00,85.7,72.1,30.10,South,169,1.0,4.0,64,0.00,,CLR,0.00,VWS V14.00,2013-05-31 14:12:00,
2013-05-31 10:17:00,86.1,72.0,30.10,SE,124,3.0,4.0,63,0.00,,CLR,0.00,VWS V14.00,2013-05-31 14:17:00,
2013-05-31 10:23:00,86.4,72.3,30.10,SE,138,1.0,4.0,63,0.00,,CLR,0.00,VWS V14.00,2013-05-31 14:23:00,
2013-05-31 10:28:00,86.8,72.2,30.10,SE,146,1.0,5.0,62,0.00,,CLR,0.00,VWS V14.00,2013-05-31 14:28:00,
2013-05-31 10:30:00,86.8,71.8,30.10,SSE,150,3.0,5.0,61,0.00,,CLR,0.00,VWS V14.00,2013-05-31 14:30:00,
2013-05-31 10:33:00,86.8,72.7,30.09,West,269,2.0,4.0,63,0.00,,CLR,0.00,VWS V14.00,2013-05-31 14:33:00,
2013-05-31 10:38:00,86.9,71.8,30.09,SSE,167,2.0,4.0,61,0.00,,CLR,0.00,VWS V14.00,2013-05-31 14:38:00,
2013-05-31 10:43:00,87.2,72.6,30.09,SSE,158,0.0,4.0,62,0.00,,CLR,0.00,VWS V14.00,2013-05-31 14:43:00,
2013-05-31 10:48:00,87.3,71.2,30.09,WSW,252,2.0,5.0,59,0.00,,CLR,0.00,VWS V14.00,2013-05-31 14:48:00,
2013-05-31 10:53:00,87.7,71.1,30.09,SW,217,1.0,5.0,58,0.00,,CLR,0.00,VWS V14.00,2013-05-31 14:53:00,
2013-05-31 10:58:00,88.1,72.5,30.09,West,266,1.0,5.0,60,0.00,,CLR,0.00,VWS V14.00,2013-05-31 14:58:00,
2013-05-31 11:00:00,88.2,71.6,30.09,SSE,159,1.0,5.0,58,0.00,,CLR,0.00,VWS V14.00,2013-05-31 15:00:00,
2013-05-31 11:03:00,88.6,71.4,30.09,SE,131,0.0,4.0,57,0.00,,CLR,0.00,VWS V14.00,2013-05-31 15:03:00,
2013-05-31 11:08:00,89.1,70.3,30.09,SSE,153,3.0,4.0,54,0.00,,CLR,0.00,VWS V14.00,2013-05-31 15:08:00,
2013-05-31 11:13:00,89.3,70.5,30.09,South,181,1.0,4.0,54,0.00,,CLR,0.00,VWS V14.00,2013-05-31 15:13:00,
2013-05-31 11:18:00,89.7,71.9,30.09,West,267,1.0,4.0,56,0.00,,CLR,0.00,VWS V14.00,2013-05-31 15:18:00,
2013-05-31 11:23:00,90.1,70.7,30.09,SSW,195,0.0,4.0,53,0.00,,CLR,0.00,VWS V14.00,2013-05-31 15:23:00,
2013-05-31 11:28:00,90.2,70.2,30.09,SSW,210,2.0,4.0,52,0.00,,CLR,0.00,VWS V14.00,2013-05-31 15:28:00,
2013-05-31 11:30:00,90.2,71.9,30.09,SW,224,3.0,4.0,55,0.00,,CLR,0.00,VWS V14.00,2013-05-31 15:30:00,
2013-05-31 11:33:00,90.1,68.4,30.09,South,190,1.0,4.0,49,0.00,,CLR,0.00,VWS V14.00,2013-05-31 15:33:00,
2013-05-31 11:38:00,90.2,69.6,30.09,ESE,103,1.0,5.0,51,0.00,,CLR,0.00,VWS V14.00,2013-05-31 15:38:00,
2013-05-31 11:43:00,90.2,70.2,30.09,WSW,252,1.0,5.0,52,0.00,,CLR,0.00,VWS V14.00,2013-05-31 15:43:00,
2013-05-31 11:48:00,90.9,69.7,30.08,WSW,239,2.0,6.0,50,0.00,,CLR,0.00,VWS V14.00,2013-05-31 15:48:00,
2013-05-31 11:53:00,91.4,67.7,30.08,West,265,3.0,6.0,46,0.00,,CLR,0.00,VWS V14.00,2013-05-31 15:53:00,
2013-05-31 11:58:00,91.2,70.6,30.08,West,276,0.0,6.0,51,0.00,,CLR,0.00,VWS V14.00,2013-05-31 15:58:00,
2013-05-31 12:00:00,91.5,70.2,30.08,South,170,3.0,6.0,50,0.00,,CLR,0.00,VWS V14.00,2013-05-31 16:00:00,
2013-05-31 12:03:00,91.9,72.3,30.08,SSW,212,2.0,3.0,53,0.00,,CLR,0.00,VWS V14.00,2013-05-31 16:03:00,
2013-05-31 12:08:00,92.5,69.3,30.08,NE,35,1.0,3.0,47,0.00,,CLR,0.00,VWS V14.00,2013-05-31 16:08:00,
2013-05-31 12:13:00,92.0,68.3,30.08,SW,226,2.0,4.0,46,0.00,,CLR,0.00,VWS V14.00,2013-05-31 16:13:00,
2013-05-31 12:18:00,91.7,69.8,30.08,WSW,240,2.0,4.0,49,0.00,,CLR,0.00,VWS V14.00,2013-05-31 16:18:00,
2013-05-31 12:24:00,91.7,68.6,30.08,South,173,2.0,5.0,47,0.00,,CLR,0.00,VWS V14.00,2013-05-31 16:24:00,
2013-05-31 12:29:00,92.0,68.9,30.08,West,274,1.0,5.0,47,0.00,,CLR,0.00,VWS V14.00,2013-05-31 16:29:00,
2013-05-31 12:30:00,92.0,68.9,30.08,NNW,328,2.0,5.0,47,0.00,,CLR,0.00,VWS V14.00,2013-05-31 16:30:00,
2013-05-31 12:34:00,91.9,68.8,30.07,WSW,254,2.0,4.0,47,0.00,,CLR,0.00,VWS V14.00,2013-05-31 16:34:00,
2013-05-31 12:39:00,92.3,68.5,30.07,WSW,254,1.0,4.0,46,0.00,,CLR,0.00,VWS V14.00,2013-05-31 16:39:00,
2013-05-31 12:44:00,92.3,69.8,30.07,SW,236,1.0,4.0,48,0.00,,CLR,0.00,VWS V14.00,2013-05-31 16:44:00,
2013-05-31 12:49:00,92.2,69.7,30.07,SW,221,1.0,4.0,48,0.00,,CLR,0.00,VWS V14.00,2013-05-31 16:49:00,
2013-05-31 12:54:00,92.1,69.0,30.07,NW,307,1.0,4.0,47,0.00,,CLR,0.00,VWS V14.00,2013-05-31 16:54:00,
2013-05-31 12:59:00,91.8,68.1,30.07,SSW,195,1.0,4.0,46,0.00,,CLR,0.00,VWS V14.00,2013-05-31 16:59:00,
2013-05-31 13:00:00,91.8,68.7,30.07,SW,231,1.0,4.0,47,0.00,,CLR,0.00,VWS V14.00,2013-05-31 17:00:00,
2013-05-31 13:04:00,92.2,69.7,30.06,SSW,211,2.0,3.0,48,0.00,,CLR,0.00,VWS V14.00,2013-05-31 17:04:00,
2013-05-31 13:09:00,92.3,69.8,30.06,SSE,166,0.0,4.0,48,0.00,,CLR,0.00,VWS V14.00,2013-05-31 17:09:00,
2013-05-31 13:14:00,92.5,69.3,30.06,SE,142,2.0,4.0,47,0.00,,CLR,0.00,VWS V14.00,2013-05-31 17:14:00,
2013-05-31 13:19:00,92.1,69.0,30.06,SSW,205,2.0,4.0,47,0.00,,CLR,0.00,VWS V14.00,2013-05-31 17:19:00,
2013-05-31 13:24:00,92.1,67.7,30.06,West,277,2.0,4.0,45,0.00,,CLR,0.00,VWS V14.00,2013-05-31 17:24:00,
2013-05-31 13:29:00,92.9,68.4,30.05,South,191,2.0,4.0,45,0.00,,CLR,0.00,VWS V14.00,2013-05-31 17:29:00,
2013-05-31 13:30:00,92.9,68.4,30.05,South,183,1.0,4.0,45,0.00,,CLR,0.00,VWS V14.00,2013-05-31 17:30:00,
2013-05-31 13:34:00,93.4,66.9,30.05,SE,138,1.0,3.0,42,0.00,,CLR,0.00,VWS V14.00,2013-05-31 17:34:00,
2013-05-31 13:39:00,93.4,68.2,30.05,SW,223,2.0,4.0,44,0.00,,CLR,0.00,VWS V14.00,2013-05-31 17:39:00,
2013-05-31 13:44:00,93.8,68.6,30.05,South,188,1.0,5.0,44,0.00,,CLR,0.00,VWS V14.00,2013-05-31 17:44:00,
2013-05-31 13:49:00,93.8,68.6,30.04,South,190,2.0,7.0,44,0.00,,CLR,0.00,VWS V14.00,2013-05-31 17:49:00,
2013-05-31 13:54:00,94.0,68.8,30.04,SE,143,5.0,7.0,44,0.00,,CLR,0.00,VWS V14.00,2013-05-31 17:54:00,
2013-05-31 13:59:00,94.1,68.2,30.04,SSE,158,1.0,7.0,43,0.00,,CLR,0.00,VWS V14.00,2013-05-31 17:59:00,
2013-05-31 14:00:00,94.1,68.2,30.04,SSE,158,1.0,7.0,43,0.00,,OVC009,0.00,VWS V14.00,2013-05-31 18:00:00,
2013-05-31 14:04:00,94.0,68.8,30.04,SSE,155,5.0,5.0,44,0.00,,CLR,0.00,VWS V14.00,2013-05-31 18:04:00,
2013-05-31 14:09:00,94.0,64.6,30.04,South,190,3.0,6.0,38,0.00,,CLR,0.00,VWS V14.00,2013-05-31 18:09:00,
2013-05-31 14:15:00,94.1,62.3,30.04,East,81,5.0,6.0,35,0.00,,CLR,0.00,VWS V14.00,2013-05-31 18:15:00,
2013-05-31 14:20:00,93.7,61.9,30.03,SSW,200,2.0,6.0,35,0.00,,CLR,0.00,VWS V14.00,2013-05-31 18:20:00,
2013-05-31 14:25:00,93.6,62.7,30.03,SSE,167,3.0,6.0,36,0.00,,CLR,0.00,VWS V14.00,2013-05-31 18:25:00,
2013-05-31 14:30:00,93.9,58.7,30.03,SSW,200,4.0,5.0,31,0.00,,CLR,0.00,VWS V14.00,2013-05-31 18:30:00,
2013-05-31 14:35:00,94.4,59.1,30.03,NW,315,1.0,6.0,31,0.00,,CLR,0.00,VWS V14.00,2013-05-31 18:35:00,
2013-05-31 14:40:00,94.5,58.3,30.03,South,172,2.0,6.0,30,0.00,,CLR,0.00,VWS V14.00,2013-05-31 18:40:00,
2013-05-31 14:45:00,94.8,57.6,30.03,SSW,207,4.0,6.0,29,0.00,,CLR,0.00,VWS V14.00,2013-05-31 18:45:00,
2013-05-31 14:50:00,94.8,62.1,30.03,SSW,195,2.0,6.0,34,0.00,,CLR,0.00,VWS V14.00,2013-05-31 18:50:00,
2013-05-31 14:55:00,94.7,59.4,30.03,West,269,3.0,7.0,31,0.00,,CLR,0.00,VWS V14.00,2013-05-31 18:55:00,
2013-05-31 15:00:00,94.2,61.6,30.03,WSW,254,5.0,5.0,34,0.00,,CLR,0.00,VWS V14.00,2013-05-31 19:00:00,
2013-05-31 15:05:00,94.1,62.3,30.03,SE,143,3.0,6.0,35,0.00,,CLR,0.00,VWS V14.00,2013-05-31 19:05:00,
2013-05-31 15:10:00,94.5,60.1,30.03,NW,314,3.0,7.0,32,0.00,,CLR,0.00,VWS V14.00,2013-05-31 19:10:00,
2013-05-31 15:15:00,94.4,63.4,30.02,SSE,163,4.0,7.0,36,0.00,,CLR,0.00,VWS V14.00,2013-05-31 19:15:00,
2013-05-31 15:20:00,94.7,63.6,30.02,NW,317,3.0,7.0,36,0.00,,CLR,0.00,VWS V14.00,2013-05-31 19:20:00,
2013-05-31 15:25:00,95.1,61.5,30.02,SW,214,3.0,7.0,33,0.00,,CLR,0.00,VWS V14.00,2013-05-31 19:25:00,
2013-05-31 15:30:00,94.8,62.9,30.02,SW,215,3.0,5.0,35,0.00,,CLR,0.00,VWS V14.00,2013-05-31 19:30:00,
2013-05-31 15:35:00,94.8,64.5,30.02,SW,215,1.0,5.0,37,0.00,,CLR,0.00,VWS V14.00,2013-05-31 19:35:00,
2013-05-31 15:40:00,94.7,65.2,30.02,South,181,2.0,6.0,38,0.00,,CLR,0.00,VWS V14.00,2013-05-31 19:40:00,
2013-05-31 15:45:00,95.0,63.1,30.01,SSW,210,4.0,6.0,35,0.00,,CLR,0.00,VWS V14.00,2013-05-31 19:45:00,
2013-05-31 15:50:00,94.9,63.0,30.01,South,190,3.0,6.0,35,0.00,,CLR,0.00,VWS V14.00,2013-05-31 19:50:00,
2013-05-31 15:55:00,94.6,63.5,30.01,SW,226,4.0,6.0,36,0.00,,CLR,0.00,VWS V14.00,2013-05-31 19:55:00,
2013-05-31 16:00:00,94.1,63.1,30.01,ESE,117,4.0,4.0,36,0.00,,CLR,0.00,VWS V14.00,2013-05-31 20:00:00,
2013-05-31 16:05:00,93.8,63.6,30.01,South,176,4.0,6.0,37,0.00,,CLR,0.00,VWS V14.00,2013-05-31 20:05:00,
2013-05-31 16:10:00,94.0,63.8,30.01,SSW,194,3.0,6.0,37,0.00,,CLR,0.00,VWS V14.00,2013-05-31 20:10:00,
2013-05-31 16:16:00,94.1,63.1,30.01,WSW,253,1.0,6.0,36,0.00,,CLR,0.00,VWS V14.00,2013-05-31 20:16:00,
2013-05-31 16:21:00,94.3,65.6,30.01,North,349,3.0,6.0,39,0.00,,CLR,0.00,VWS V14.00,2013-05-31 20:21:00,
2013-05-31 16:26:00,94.2,61.6,30.01,East,96,2.0,6.0,34,0.00,,CLR,0.00,VWS V14.00,2013-05-31 20:26:00,
2013-05-31 16:30:00,94.0,64.6,30.00,SSW,207,3.0,6.0,38,0.00,,CLR,0.00,VWS V14.00,2013-05-31 20:30:00,
2013-05-31 16:31:00,93.9,62.1,30.00,West,266,4.0,4.0,35,0.00,,CLR,0.00,VWS V14.00,2013-05-31 20:31:00,
2013-05-31 16:36:00,92.8,63.5,30.00,SSW,208,1.0,5.0,38,0.00,,CLR,0.00,VWS V14.00,2013-05-31 20:36:00,
2013-05-31 16:41:00,92.1,63.6,30.00,NW,304,1.0,5.0,39,0.00,,CLR,0.00,VWS V14.00,2013-05-31 20:41:00,
2013-05-31 16:46:00,91.9,64.9,30.00,SSW,205,3.0,5.0,41,0.00,,CLR,0.00,VWS V14.00,2013-05-31 20:46:00,
2013-05-31 16:51:00,92.1,65.0,30.00,SSW,197,1.0,5.0,41,0.00,,CLR,0.00,VWS V14.00,2013-05-31 20:51:00,
2013-05-31 16:56:00,92.1,65.0,30.00,SW,219,1.0,5.0,41,0.00,,CLR,0.00,VWS V14.00,2013-05-31 20:56:00,
2013-05-31 17:00:00,92.3,64.5,30.00,West,263,2.0,5.0,40,0.00,,CLR,0.00,VWS V14.00,2013-05-31 21:00:00,
2013-05-31 17:01:00,92.2,65.1,30.00,SSW,198,1.0,3.0,41,0.00,,CLR,0.00,VWS V14.00,2013-05-31 21:01:00,
2013-05-31 17:06:00,92.3,66.6,29.99,South,180,3.0,4.0,43,0.00,,CLR,0.00,VWS V14.00,2013-05-31 21:06:00,
2013-05-31 17:11:00,92.3,64.5,30.00,SSW,210,4.0,7.0,40,0.00,,CLR,0.00,VWS V14.00,2013-05-31 21:11:00,
2013-05-31 17:16:00,92.2,64.4,29.99,SW,217,1.0,7.0,40,0.00,,CLR,0.00,VWS V14.00,2013-05-31 21:16:00,
2013-05-31 17:21:00,92.0,62.0,29.99,WSW,238,6.0,9.0,37,0.00,,CLR,0.00,VWS V14.00,2013-05-31 21:21:00,
2013-05-31 17:26:00,91.8,62.6,29.99,South,187,1.0,9.0,38,0.00,,CLR,0.00,VWS V14.00,2013-05-31 21:26:00,
2013-05-31 17:30:00,91.8,64.1,29.99,South,189,3.0,9.0,40,0.00,,OVC009,0.00,VWS V14.00,2013-05-31 21:30:00,
2013-05-31 17:31:00,91.7,65.4,29.99,WSW,240,1.0,4.0,42,0.00,,CLR,0.00,VWS V14.00,2013-05-31 21:31:00,
2013-05-31 17:36:00,91.3,62.9,29.99,South,184,0.0,4.0,39,0.00,,CLR,0.00,VWS V14.00,2013-05-31 21:36:00,
2013-05-31 17:41:00,91.1,64.1,29.99,SW,217,1.0,5.0,41,0.00,,CLR,0.00,VWS V14.00,2013-05-31 21:41:00,
2013-05-31 17:46:00,90.7,63.1,29.98,WSW,245,2.0,6.0,40,0.00,,CLR,0.00,VWS V14.00,2013-05-31 21:46:00,
2013-05-31 17:51:00,90.6,61.5,29.98,SSW,210,2.0,6.0,38,0.00,,CLR,0.00,VWS V14.00,2013-05-31 21:51:00,
2013-05-31 17:57:00,90.4,62.8,29.98,SW,229,3.0,6.0,40,0.00,,CLR,0.00,VWS V14.00,2013-05-31 21:57:00,
2013-05-31 18:00:00,90.2,61.9,29.98,SW,232,1.0,6.0,39,0.00,,CLR,0.00,VWS V14.00,2013-05-31 22:00:00,
2013-05-31 18:02:00,90.1,60.3,29.98,SSE,168,2.0,5.0,37,0.00,,CLR,0.00,VWS V14.00,2013-05-31 22:02:00,
2013-05-31 18:07:00,89.9,60.9,29.98,SW,225,2.0,7.0,38,0.00,,CLR,0.00,VWS V14.00,2013-05-31 22:07:00,
2013-05-31 18:12:00,89.6,61.4,29.98,SW,215,1.0,7.0,39,0.00,,CLR,0.00,VWS V14.00,2013-05-31 22:12:00,
2013-05-31 18:17:00,89.4,61.9,29.98,SSE,166,3.0,7.0,40,0.00,,CLR,0.00,VWS V14.00,2013-05-31 22:17:00,
2013-05-31 18:22:00,89.4,61.9,29.98,WSW,256,1.0,7.0,40,0.00,,CLR,0.00,VWS V14.00,2013-05-31 22:22:00,
2013-05-31 18:27:00,89.4,61.9,29.98,SSW,210,0.0,7.0,40,0.00,,CLR,0.00,VWS V14.00,2013-05-31 22:27:00,
2013-05-31 18:30:00,89.4,61.9,29.98,South,172,2.0,7.0,40,0.00,,CLR,0.00,VWS V14.00,2013-05-31 22:30:00,
2013-05-31 18:32:00,89.3,62.5,29.98,SSW,200,0.0,5.0,41,0.00,,CLR,0.00,VWS V14.00,2013-05-31 22:32:00,
2013-05-31 18:37:00,89.1,63.7,29.98,SSW,195,1.0,5.0,43,0.00,,CLR,0.00,VWS V14.00,2013-05-31 22:37:00,
2013-05-31 18:42:00,88.8,62.8,29.98,SW,233,1.0,5.0,42,0.00,,CLR,0.00,VWS V14.00,2013-05-31 22:42:00,
2013-05-31 18:47:00,88.5,64.5,29.98,SSE,155,2.0,5.0,45,0.00,,CLR,0.00,VWS V14.00,2013-05-31 22:47:00,
2013-05-31 18:52:00,88.2,62.9,29.98,WNW,283,2.0,5.0,43,0.00,,CLR,0.00,VWS V14.00,2013-05-31 22:52:00,
2013-05-31 18:57:00,87.9,63.3,29.98,West,275,1.0,5.0,44,0.00,,CLR,0.00,VWS V14.00,2013-05-31 22:57:00,
2013-05-31 19:00:00,87.7,62.5,29.98,SE,125,1.0,5.0,43,0.00,,OVC009,0.00,VWS V14.00,2013-05-31 23:00:00,
2013-05-31 19:02:00,87.5,64.2,29.98,WSW,255,3.0,3.0,46,0.00,,CLR,0.00,VWS V14.00,2013-05-31 23:02:00,
2013-05-31 19:07:00,87.2,63.3,29.98,WSW,257,2.0,5.0,45,0.00,,CLR,0.00,VWS V14.00,2013-05-31 23:07:00,
2013-05-31 19:12:00,86.8,62.9,29.98,SW,218,1.0,5.0,45,0.00,,CLR,0.00,VWS V14.00,2013-05-31 23:12:00,
2013-05-31 19:17:00,86.5,63.3,29.98,SSW,197,0.0,5.0,46,0.00,,CLR,0.00,VWS V14.00,2013-05-31 23:17:00,
2013-05-31 19:22:00,86.1,62.9,29.98,West,263,1.0,5.0,46,0.00,,CLR,0.00,VWS V14.00,2013-05-31 23:22:00,
2013-05-31 19:27:00,85.7,63.8,29.98,SW,235,1.0,5.0,48,0.00,,CLR,0.00,VWS V14.00,2013-05-31 23:27:00,
2013-05-31 19:30:00,85.6,63.1,29.98,WSW,240,0.0,5.0,47,0.00,,CLR,0.00,VWS V14.00,2013-05-31 23:30:00,
2013-05-31 19:32:00,85.4,64.1,29.98,WSW,240,0.0,1.0,49,0.00,,CLR,0.00,VWS V14.00,2013-05-31 23:32:00,
2013-05-31 19:37:00,84.9,64.2,29.98,WNW,296,2.0,2.0,50,0.00,,CLR,0.00,VWS V14.00,2013-05-31 23:37:00,
2013-05-31 19:42:00,84.8,63.0,29.98,SW,236,1.0,4.0,48,0.00,,CLR,0.00,VWS V14.00,2013-05-31 23:42:00,
2013-05-31 19:47:00,84.6,62.8,29.98,West,276,1.0,4.0,48,0.00,,CLR,0.00,VWS V14.00,2013-05-31 23:47:00,
2013-05-31 19:53:00,84.2,63.6,29.98,SW,236,1.0,4.0,50,0.00,,CLR,0.00,VWS V14.00,2013-05-31 23:53:00,
2013-05-31 19:58:00,83.7,62.5,29.98,SW,232,0.0,4.0,49,0.00,,CLR,0.00,VWS V14.00,2013-05-31 23:58:00,
2013-05-31 20:00:00,83.6,61.8,29.98,West,261,2.0,4.0,48,0.00,,CLR,0.00,VWS V14.00,2013-06-01 00:00:00,
2013-05-31 20:03:00,83.4,62.8,29.98,West,264,1.0,3.0,50,0.00,,CLR,0.00,VWS V14.00,2013-06-01 00:03:00,
2013-05-31 20:08:00,82.9,62.4,29.98,SSW,211,3.0,4.0,50,0.00,,CLR,0.00,VWS V14.00,2013-06-01 00:08:00,
2013-05-31 20:13:00,82.4,62.5,29.98,WSW,249,3.0,4.0,51,0.00,,CLR,0.00,VWS V14.00,2013-06-01 00:13:00,
2013-05-31 20:18:00,81.8,63.0,29.98,SSW,194,1.0,4.0,53,0.00,,CLR,0.00,VWS V14.00,2013-06-01 00:18:00,
2013-05-31 20:23:00,81.3,62.0,29.98,WSW,239,0.0,4.0,52,0.00,,CLR,0.00,VWS V14.00,2013-06-01 00:23:00,
2013-05-31 20:28:00,81.1,61.8,29.98,SW,222,1.0,4.0,52,0.00,,CLR,0.00,VWS V14.00,2013-06-01 00:28:00,
2013-05-31 20:30:00,81.0,61.7,29.99,WSW,249,0.0,4.0,52,0.00,,CLR,0.00,VWS V14.00,2013-06-01 00:30:00,
2013-05-31 20:33:00,80.8,62.1,29.99,WSW,239,1.0,1.0,53,0.00,,CLR,0.00,VWS V14.00,2013-06-01 00:33:00,
2013-05-31 20:38:00,80.4,61.7,29.98,SSW,208,2.0,4.0,53,0.00,,CLR,0.00,VWS V14.00,2013-06-01 00:38:00,
2013-05-31 20:43:00,80.1,62.0,29.99,SE,142,0.0,4.0,54,0.00,,CLR,0.00,VWS V14.00,2013-06-01 00:43:00,
2013-05-31 20:48:00,79.9,61.8,29.99,WSW,239,0.0,4.0,54,0.00,,CLR,0.00,VWS V14.00,2013-06-01 00:48:00,
2013-05-31 20:53:00,79.7,62.1,29.99,SW,232,0.0,4.0,55,0.00,,CLR,0.00,VWS V14.00,2013-06-01 00:53:00,
2013-05-31 20:58:00,79.2,61.7,29.99,SW,232,0.0,4.0,55,0.00,,CLR,0.00,VWS V14.00,2013-06-01 00:58:00,
2013-05-31 21:00:00,79.1,61.6,29.99,SW,231,0.0,4.0,55,0.00,,CLR,0.00,VWS V14.00,2013-06-01 01:00:00,
2013-05-31 21:03:00,78.9,61.4,29.99,SW,231,0.0,0.0,55,0.00,,CLR,0.00,VWS V14.00,2013-06-01 01:03:00,
2013-05-31 21:08:00,78.5,61.5,29.99,SW,226,0.0,0.0,56,0.00,,CLR,0.00,VWS V14.00,2013-06-01 01:08:00,
2013-05-31 21:13:00,78.4,61.4,29.99,West,269,0.0,2.0,56,0.00,,CLR,0.00,VWS V14.00,2013-06-01 01:13:00,
2013-05-31 21:18:00,78.0,62.0,30.00,West,270,0.0,2.0,58,0.00,,CLR,0.00,VWS V14.00,2013-06-01 01:18:00,
2013-05-31 21:23:00,77.9,62.0,30.00,SSW,205,0.0,2.0,58,0.00,,CLR,0.00,VWS V14.00,2013-06-01 01:23:00,
2013-05-31 21:28:00,77.6,63.1,30.00,SW,225,0.0,2.0,61,0.00,,CLR,0.00,VWS V14.00,2013-06-01 01:28:00,
2013-05-31 21:30:00,77.5,63.0,30.00,NW,316,2.0,2.0,61,0.00,,CLR,0.00,VWS V14.00,2013-06-01 01:30:00,
2013-05-31 21:34:00,77.4,62.4,30.00,SW,224,2.0,2.0,60,0.00,,CLR,0.00,VWS V14.00,2013-06-01 01:34:00,
2013-05-31 21:39:00,77.3,62.3,30.00,WSW,240,0.0,2.0,60,0.00,,CLR,0.00,VWS V14.00,2013-06-01 01:39:00,
2013-05-31 21:44:00,77.3,62.8,30.00,SSW,212,1.0,3.0,61,0.00,,CLR,0.00,VWS V14.00,2013-06-01 01:44:00,
2013-05-31 21:49:00,77.2,62.7,30.01,SW,234,1.0,3.0,61,0.00,,CLR,0.00,VWS V14.00,2013-06-01 01:49:00,
2013-05-31 21:54:00,77.2,62.7,30.01,SW,218,0.0,3.0,61,0.00,,CLR,0.00,VWS V14.00,2013-06-01 01:54:00,
2013-05-31 21:59:00,76.9,62.9,30.01,WSW,243,0.0,3.0,62,0.00,,CLR,0.00,VWS V14.00,2013-06-01 01:59:00,
2013-05-31 22:00:00,76.8,62.8,30.01,WSW,243,0.0,3.0,62,0.00,,CLR,0.00,VWS V14.00,2013-06-01 02:00:00,
2013-05-31 22:04:00,76.6,62.6,30.01,WSW,243,0.0,0.0,62,0.00,,CLR,0.00,VWS V14.00,2013-06-01 02:04:00,
2013-05-31 22:09:00,76.6,62.6,30.01,SW,224,0.0,0.0,62,0.00,,CLR,0.00,VWS V14.00,2013-06-01 02:09:00,
2013-05-31 22:14:00,76.5,63.0,30.01,SW,224,0.0,2.0,63,0.00,,CLR,0.00,VWS V14.00,2013-06-01 02:14:00,
2013-05-31 22:19:00,76.3,62.8,30.01,SW,233,0.0,2.0,63,0.00,,CLR,0.00,VWS V14.00,2013-06-01 02:19:00,
2013-05-31 22:24:00,76.2,63.1,30.01,SW,228,0.0,2.0,64,0.00,,CLR,0.00,VWS V14.00,2013-06-01 02:24:00,
2013-05-31 22:29:00,76.1,63.0,30.01,SSW,207,0.0,2.0,64,0.00,,CLR,0.00,VWS V14.00,2013-06-01 02:29:00,
2013-05-31 22:30:00,76.0,63.0,30.01,SSW,207,0.0,2.0,64,0.00,,CLR,0.00,VWS V14.00,2013-06-01 02:30:00,
2013-05-31 22:34:00,75.9,63.3,30.02,SSW,207,0.0,1.0,65,0.00,,CLR,0.00,VWS V14.00,2013-06-01 02:34:00,
2013-05-31 22:39:00,75.8,63.2,30.02,WSW,250,0.0,2.0,65,0.00,,CLR,0.00,VWS V14.00,2013-06-01 02:39:00,
2013-05-31 22:44:00,75.8,63.6,30.01,WSW,253,0.0,2.0,66,0.00,,CLR,0.00,VWS V14.00,2013-06-01 02:44:00,
2013-05-31 22:49:00,75.8,63.6,30.02,West,280,0.0,3.0,66,0.00,,CLR,0.00,VWS V14.00,2013-06-01 02:49:00,
2013-05-31 22:54:00,75.5,63.8,30.02,SW,220,1.0,3.0,67,0.00,,CLR,0.00,VWS V14.00,2013-06-01 02:54:00,
2013-05-31 22:59:00,75.6,63.9,30.01,WSW,248,0.0,3.0,67,0.00,,CLR,0.00,VWS V14.00,2013-06-01 02:59:00,
2013-05-31 23:00:00,75.6,63.9,30.01,WSW,247,0.0,3.0,67,0.00,,OVC009,0.00,VWS V14.00,2013-06-01 03:00:00,
2013-05-31 23:04:00,75.7,64.4,30.01,SW,226,0.0,4.0,68,0.00,,CLR,0.00,VWS V14.00,2013-06-01 03:04:00,
2013-05-31 23:09:00,75.5,64.6,30.01,SSW,207,0.0,4.0,69,0.00,,CLR,0.00,VWS V14.00,2013-06-01 03:09:00,
2013-05-31 23:14:00,75.2,64.3,30.01,SSW,208,0.0,4.0,69,0.00,,CLR,0.00,VWS V14.00,2013-06-01 03:14:00,
2013-05-31 23:19:00,75.0,64.6,30.01,SW,215,0.0,4.0,70,0.00,,CLR,0.00,VWS V14.00,2013-06-01 03:19:00,
2013-05-31 23:24:00,74.7,64.7,30.01,SSW,207,0.0,4.0,71,0.00,,CLR,0.00,VWS V14.00,2013-06-01 03:24:00,
2013-05-31 23:29:00,74.5,64.9,30.01,SSW,207,0.0,0.0,72,0.00,,CLR,0.00,VWS V14.00,2013-06-01 03:29:00,
2013-05-31 23:30:00,74.5,64.9,30.01,SSW,207,0.0,4.0,72,0.00,,OVC009,0.00,VWS V14.00,2013-06-01 03:30:00,
2013-05-31 23:35:00,74.2,64.6,30.01,SSW,207,0.0,1.0,72,0.00,,CLR,0.00,VWS V14.00,2013-06-01 03:35:00,
2013-05-31 23:40:00,74.0,64.4,30.01,WSW,253,0.0,1.0,72,0.00,,CLR,0.00,VWS V14.00,2013-06-01 03:40:00,
2013-05-31 23:45:00,74.3,64.7,30.01,West,262,0.0,2.0,72,0.00,,CLR,0.00,VWS V14.00,2013-06-01 03:45:00,
2013-05-31 23:50:00,74.2,64.6,30.01,SW,215,0.0,2.0,72,0.00,,CLR,0.00,VWS V14.00,2013-06-01 03:50:00,
2013-05-31 23:55:00,74.0,64.8,30.01,SW,219,0.0,2.0,73,0.00,,CLR,0.00,VWS V14.00,2013-06-01 03:55:00,